Regional Weather Roundup
Issued by NWS Wakefield, VA

Home | Current Version | Previous Version | Text Only | Print | Product List | Glossary Off
Versions: 1 2 3 4 5 6 7 8 9 10 11 12 13 14 15 16 17 18 19 20 21 22 23 24 25 26 27 28 29 30 31 32 33 34 35 36 37 38 39 40 41 42 43 44 45 46 47 48 49 50

000
ASUS41 KAKQ 271814
RWRAKQ

REGIONAL WEATHER ROUNDUP
NATIONAL WEATHER SERVICE WAKEFIELD VA
200 PM EDT MON APR 27 2015

Note: "fair" indicates few or no clouds below 12,000 feet with no
significant weather and/or obstructions to visibility. * = Denotes
station may not report precipitation (e.g., rain,snow,etc.),
thunder or fog.

VAZ042-051-052>054-056-271900-
NORTHERN VIRGINIA

CITY           SKY/WX    TMP DP  RH WIND       PRES   REMARKS
WASH NATIONAL  CLOUDY    58  34  40 NW13G22   29.80F
DULLES         PTSUNNY   56  33  42 NW14G21   29.81F
FORT BELVOIR   PTSUNNY   57  34  41 NW16      29.80F
QUANTICO       NOT AVBL
FREDERICKSBRG* PTSUNNY   61  35  37 N8G16     29.79S
STAFFORD*      CLOUDY    58  33  39 N9G16     29.84S
WARRENTON      MOSUNNY   60  37  43 NW17      29.80F
CULPEPER*      CLOUDY    57  36  44 N10G18    29.82S
MANASSAS*      CLOUDY    57  34  41 NW17G23   29.81F
LEESBURG*      CLOUDY    54  36  50 NW13G20   29.82F
WINCHESTER     CLOUDY    54  27  35 NW8G17    29.82F
FRONT ROYAL*   CLOUDY    52  32  46 W7        29.82F
LURAY*         FAIR      57  34  41 NW12G24   29.85R
$$

VAZ048-049-060>072-079>083-271900-
CENTRAL AND SOUTH CENTRAL VIRGINIA

CITY           SKY/WX    TMP DP  RH WIND       PRES   REMARKS
RICHMOND       MOSUNNY   63  33  32 NW8       29.78F
CHESTERFIELD*  MOCLDY    64  34  32 NW13      29.80F
PETERSBURG*    PTSUNNY   64  31  30 W6        29.80S
HANOVER        PTSUNNY   62  34  35 NW9       29.80F
TAPPAHANNOCK*  PTSUNNY   61  27  27 NW6       29.78F
QUINTON*       MOCLDY    61  34  36 NW10G18   29.78F
CHARLOTTSVILLE CLOUDY    60  34  37 N6        29.80R
GORDONSVILLE*  CLOUDY    59  34  38 NE6       29.79F
ORANGE*        PTSUNNY   59  34  38 W10       29.81S
LOUISA*        CLOUDY    61  34  36 NW7G17    29.78S
BUMPASS*       CLOUDY    58  33  37 NW8G16    29.79S
FARMVILLE*     PTSUNNY   64  36  35 CALM      29.80R
CREWE*         FAIR      63  33  32 SW7       29.79S
FORT PICKETT*  FAIR      62  35  36 NW10G22   29.80S
CHASE CITY*    FAIR      64  38  39 W3        29.79F
CLARKSVILLE*   FAIR      63  36  36 W5        29.79F
SOUTH HILL*    MOSUNNY   62  35  37 W6        29.84F
LAWRENCEVILLE* FAIR      63  37  36 W3        29.78F
EMPORIA*       SUNNY     63  36  36 NW3G17    29.80F
$$

VAZ088>098-271900-
SOUTHEAST VIRGINIA

CITY           SKY/WX    TMP DP  RH WIND       PRES   REMARKS
NORFOLK        SUNNY     59  37  44 NE9       29.77F
VIRGINIA BEACH MOSUNNY   64  37  36 N12       29.77F
NORFOLK NAVAL  MOSUNNY   63  41  44 N10       29.79F
WEST POINT*    PTSUNNY   66  29  25 W8        29.79S
SALUDA*        FAIR      61  38  41 NW14      29.77S
NEWPORT NEWS   PTSUNNY   64  42  44 E8        29.77F
LANGLEY AFB    PTSUNNY   60  40  47 NE13      29.76F
FORT EUSTIS    SUNNY     63  39  40 NW9       29.75F
WILLIAMSBURG*  SUNNY     70  41  35 W9G18     29.78F
HR EXEC AP*    MOCLDY    64  41  42 N5        29.78F
FRANKLIN*      SUNNY     64  36  34 W10G18    29.78S
WAKEFIELD      SUNNY     65  38  36 N7        29.78F
$$

VAZ020-022-025-037-045-271900-
WEST CENTRAL AND SOUTHWEST VIRGINIA

CITY           SKY/WX    TMP DP  RH WIND       PRES   REMARKS
STAUNTON*      PTSUNNY   57  32  39 N14G24    29.85R
WAYNESBORO*    CLOUDY    56  31  39 NW12G20   29.81R
HOT SPRINGS VA PTSUNNY   47  27  47 NW14G22   29.82R
LYNCHBURG      PTSUNNY   60  33  36 W12G17    29.83R
DANVILLE       PTSUNNY   64  37  36 NW10G17   29.81F
SOUTH BOSTON*  FAIR      64  32  30 NW12G24   29.81F
MARTINSVILLE   SUNNY     63  33  32 NW16G26   29.86F
ROANOKE        CLOUDY    58  32  37 W13       29.86S
BLACKSBURG     CLOUDY    52  31  44 NW14G20   29.90F
DUBLIN*        CLOUDY    54  32  43 NW14G21   29.89F
MARION*        CLOUDY    52  31  43 NW10G21   29.92F
HILLSVILLE*    PTSUNNY   52  31  45 NW18G24   29.87F
RICHLANDS*     MOCLDY    51  -3  11 NW9       29.91F
WISE*          PTSUNNY   54  28  37 NW7       29.94F
ABINGDON*      PTSUNNY   56  31  38 N8        29.90F
$$

MDZ021>025-VAZ099-100-271900-
SOUTHERN MARYLAND AND THE DELMARVA PENINSULA

CITY           SKY/WX    TMP DP  RH WIND       PRES   REMARKS
PATUXENT RIVER PTSUNNY   60  35  39 N15       29.77F
BAY BRIDGE APT   N/A    N/A N/A N/A W7        29.79S
LEONARDTOWN    CLOUDY    57  32  38 NW10      29.79F
DOVER          CLOUDY    58  35  42 W18       29.71S
GEORGETOWN     CLOUDY    58  31  35 W10G20    29.76S
EASTON         MOSUNNY   59  36  41 NW12G23   29.82S
CAMBRIDGE      SUNNY     59  32  36 NW13      29.77S
SALISBURY      CLOUDY    58  30  34 NW17G26   29.76F
OCEAN CITY     CLOUDY    58  33  39 NW13      29.75S
WALLOPS ISLAND MOSUNNY   61  37  41 NW13G23   29.75F
ACCOMACK*      SUNNY    N/A N/A N/A NW12G21   29.77F
$$

NCZ012>017-030>032-271900-
NORTH CENTRAL AND EASTERN NORTH CAROLINA

CITY           SKY/WX    TMP DP  RH WIND       PRES   REMARKS
ROANOKE RAPIDS FAIR      63  37  39 W10       29.78F
RALEIGH        MOSUNNY   65  37  35 W8G17     29.80F
ELIZABETH CITY MOSUNNY   67  40  37 N10G21    29.76S
AHOSKIE*       SUNNY     64  35  34 CALM      29.77F
EDENTON*       MOSUNNY   67  39  35 NW14G20   29.77F
CURRITUCK*     PTSUNNY   64  42  43 NW8       29.76S
KILL DEVIL HLS SUNNY     65  43  44 W10G16    29.75S
MANTEO         MOSUNNY   64  43  45 W8        29.77S
CAPE HATTERAS  SUNNY     61  41  47 NW7       29.78F
TARBORO*       FAIR      67  38  35 NW7G16    29.79F
GOLDSBORO      MOSUNNY   68  39  34 NW13      29.76F
WASHINGTON     SUNNY     67  41  38 NW9       29.77F
GREENVILLE       N/A     68  41  37 NW8G17    29.80
NEW BERN       PTSUNNY   68  40  35 NW6       29.78F
WILMINGTON     SUNNY     70  39  32 NW9G17    29.78F
$$

VAZ048-271900-
ELSEWHERE

CITY           SKY/WX    TMP DP  RH WIND       PRES   REMARKS
HARRISBURG PA  MOSUNNY   57  32  38 W14       29.77S
BALTIMORE      CLOUDY    54  34  46 W13G20    29.78S
ANNAPOLIS      CLOUDY    57  33  40 NW12      29.78S
ANDREWS AFB    CLOUDY    56  33  43 NW7       29.78F
PHILADELPHIA   CLOUDY    58  31  35 NW13      29.73S
HENDERSON NC   MOSUNNY   64  32  29 NW10      29.79F
GREENSBORO     MOSUNNY   65  32  29 NW15G22   29.80F
ROCKY MOUNT    SUNNY     66  37  34 SW5       29.78F
$$

VAZ100-271900-
MARINE

STATION/POSITION TIME  TEMP    WIND        PRES    WAVE   SWELL
                       AIR SEA DIR/SP/G            HT/PER HT/PER
                 (UTC) (F)     (DEG/KT/KT) (MB)    (FT/S) (FT/S)
BRANDYWINE LGT   1700   53 53  330/  8/ 12 1007.3F
CAPE MAY NJ      1700   57 56  300/  8/ 13 1006.7F
LEWES DE         1700   53 53   10/  9/ 11 1007.3S
15NM E FENWICK I 1750   51 49              1007.1S   2/11
OCEAN-CITY-INLET 1700   57 53  340/ 10/ 14 1007.3R
WACHAPREAGUE VA  1700   61 56  310/  5/ 10 1008.4R
THOMAS POINT MD  1800   56 53  310/ 11/ 12 1008.9F
GOOSES REEF MD   1800   54 54   50/  4/  4   N/A     1/ 2
COVE POINT MD    1700   53      40/  4/  5 1009.3S
SOLOMONS ISLAND  1700      56                N/A
BISHOPS HEAD MD  1700   56 58  290/  9/ 11 1008.2R
PINEY POINT MD   1700          310/ 14/ 15   N/A
CAMBRIDGE MD     1700   56 58  320/  9/ 12 1008.2F
LEWISETTA VA     1700   58 58              1008.4F
RAPPAHANNOCK LGT 1700          360/ 12/ 13 1009.2F
YORK RVR RNG VA  1700   55      70/ 10/ 11 1008.1F
YORKTOWN VA      1700   56 60   60/  8/ 12 1008.3F
JAMESTOWN VA     1800   60 63  290/ 12/ 14 1007.3F
DOMINION TERM VA 1700   60     290/  8/ 10 1008.7F
KIPTOPEKE VA     1700      62   20/ 10/ 13   N/A
CHES BAY BRIDGE  1700   54 59  360/ 13/ 15 1008.3F
CAPE HENRY VA    1700   54     350/ 14/ 15 1007.4F
CHESAPEAKE LGHT  1700   51      40/ 13/ 14 1009.0F
WILLOUBY STN VA  1700   55      40/ 12/ 13 1009.3F
S CRANEY ISL VA  1700           20/  5/  8 1008.6F
CAPE HENRY BUOY  1728      52                N/A     3/ 7
OFFSHORE WE BUOY 1711      51                N/A     3/ 8   3/ 8
64NM E OF VA BCH 1750   53 56  340/ 12/ 14 1007.3F   3/ 8   3/ 8
DUCK PIER NC     1700   61 55  230/  9/ 12 1006.6F
44056 DUCK FRF   1711      56                N/A     3/ 7
OREGON INLET NC  1700   62 55  310/ 10/ 13 1008.1F
HATTERAS NC      1700   61 61  290/  8/  9 1008.5R
DIAMOND SHLS NC  1750   61 74  330/ 10/ 14 1008.6F   5/10   5/10
CAPE LOOKOUT NC  1800   65     100/  2/  3 1008.3F
$$


USA.gov is the U.S. government's official web portal to all federal, state and local government web resources and services.